Weather History for Opa Locka, FL

Change the Weather History Date:

Sunday, November 27, 2011

  Actual Average Record
Temperature  
Mean Temperature 74 °F -  
Max Temperature 80 °F 80 °F 86 °F (1986)
Min Temperature 69 °F 66 °F 38 °F (1956)
Cooling Degree Days 10    
Growing Degree Days 24 (Base 50)    
Moisture  
Dew Point 60 °F    
Average Humidity 61    
Maximum Humidity 73    
Minimum Humidity 50    
Precipitation  
Precipitation 0.00 in - - ()
Sea Level Pressure  
Sea Level Pressure 30.05 in    
Wind  
Wind Speed 10 mph (ESE)    
Max Wind Speed 17 mph    
Max Gust Speed 22 mph    
Visibility 10 miles    
Events      
Averages and records for this station are not official NWS values.
T = Trace of Precipitation, MM = Missing Value Source: NWS Daily Summary

Daily Weather History Graph

Daily Weather History Graph

Search for Another Location

Airport:

Trip Planner

Search our weather history database for the weather conditions in past years. The results will help you decide how hot, cold, wet, or windy it might be!

Date:

Astronomy

Nov. 27, 2011 Rise Set
Actual Time 6:47 AM EST 5:29 PM EST
Civil Twilight 6:23 AM EST 5:54 PM EST
Nautical Twilight 5:54 AM EST 6:22 PM EST
Astronomical Twilight 5:26 AM EST 6:50 PM EST
Moon 9:08 AM EST (11/27) 8:07 PM EST (11/27)
Length of Visible Light 11h 31m
Length of Day
10h 41m
Waxing Crescent, 8% of the Moon is Illuminated
Nov 27
Waxing Crescent
Dec 2
First Quarter
Dec 10
Full
Dec 17
Last Quarter
Dec 24
New

Hourly Weather History & Observations

Time (EST) Temp. Heat Index Dew Point Humidity Pressure Visibility Wind Dir Wind Speed Gust Speed Precip Events Conditions
12:53 AM 73.9 °F - 57.0 °F 55% 30.10 in 10.0 mi ESE 11.5 mph 21.9 mph 0.00 in   Mostly Cloudy
1:53 AM 73.9 °F - 54.0 °F 50% 30.09 in 10.0 mi ESE 11.5 mph - N/A   Clear
2:53 AM 73.9 °F - 57.0 °F 55% 30.08 in 10.0 mi SE 8.1 mph - N/A   Overcast
3:53 AM 73.0 °F - 55.0 °F 53% 30.07 in 10.0 mi ESE 9.2 mph - N/A   Partly Cloudy
4:53 AM 71.1 °F - 54.0 °F 55% 30.06 in 10.0 mi ESE 6.9 mph - N/A   Partly Cloudy
5:53 AM 69.1 °F - 55.0 °F 61% 30.06 in 10.0 mi East 3.5 mph - N/A   Scattered Clouds
6:53 AM 71.1 °F - 55.0 °F 57% 30.07 in 10.0 mi East 8.1 mph - N/A   Partly Cloudy
7:53 AM 75.0 °F - 55.9 °F 51% 30.08 in 10.0 mi East 8.1 mph - N/A   Clear
8:53 AM 78.1 °F - 57.9 °F 50% 30.09 in 10.0 mi East 12.7 mph - N/A   Clear
10:53 AM 80.1 °F 80.9 °F 60.1 °F 50% 30.09 in 10.0 mi ENE 17.3 mph - N/A   Clear
11:53 AM 80.1 °F 81.5 °F 63.0 °F 56% 30.07 in 10.0 mi East 17.3 mph - N/A   Mostly Cloudy
12:53 PM 79.0 °F - 62.1 °F 56% 30.05 in 10.0 mi ESE 12.7 mph 20.7 mph N/A   Mostly Cloudy
1:53 PM 80.1 °F 81.9 °F 64.9 °F 60% 30.03 in 10.0 mi East 13.8 mph 20.7 mph N/A   Mostly Cloudy
2:53 PM 79.0 °F - 63.0 °F 58% 30.02 in 10.0 mi ESE 12.7 mph - N/A   Partly Cloudy
3:53 PM 78.1 °F - 64.0 °F 62% 30.01 in 10.0 mi ESE 15.0 mph - N/A   Mostly Cloudy
4:53 PM 75.9 °F - 64.0 °F 67% 30.01 in 10.0 mi ESE 9.2 mph - N/A   Partly Cloudy
5:53 PM 75.0 °F - 64.0 °F 69% 30.01 in 10.0 mi ESE 9.2 mph - N/A   Clear
6:53 PM 73.9 °F - 63.0 °F 68% 30.01 in 10.0 mi ESE 9.2 mph - N/A   Clear
7:53 PM 73.9 °F - 64.0 °F 71% 30.01 in 10.0 mi ESE 9.2 mph - N/A   Clear
8:53 PM 73.9 °F - 64.0 °F 71% 30.01 in 10.0 mi ESE 9.2 mph - N/A   Clear
9:53 PM 73.9 °F - 64.0 °F 71% 30.01 in 10.0 mi ESE 8.1 mph - N/A   Clear
10:53 PM 73.9 °F - 64.9 °F 73% 30.01 in 10.0 mi SE 6.9 mph - N/A   Partly Cloudy
11:53 PM 73.9 °F - 64.9 °F 73% 30.00 in 10.0 mi ESE 8.1 mph - N/A   Partly Cloudy